Location: Unspecified
(0.0000°N, 0.0000°E)
Time: 17:50:28
(UTC+00:00)

Courier 1B - Visible Passes

Search period start: 18 January 2020 00:00
Search period end: 28 January 2020 00:00
Orbit: 962 x 1209 km, 28.3° (Epoch: 17 January)

Date Brightness Start Highest point End Pass type
(mag) Time Alt. Az. Time Alt. Az. Time Alt. Az.
18 Jan 9.5 04:02:22 17° N 04:02:22 17° N 04:04:49 10° NNE visible
19 Jan 9.7 04:59:17 11° NNW 05:00:14 11° NNW 05:02:03 10° N visible
20 Jan 9.9 04:09:10 11° N 04:09:10 11° N 04:09:36 10° N visible
22 Jan 10.1 21:30:04 10° SSW 21:30:29 11° SSW 21:30:29 11° SSW visible
23 Jan 9.6 20:37:19 10° S 20:39:55 15° SSE 20:39:55 15° SSE visible
24 Jan 9.7 19:45:24 10° S 19:46:53 11° SSE 19:48:21 10° SE visible
24 Jan 10.0 21:35:34 10° SW 21:36:17 13° SW 21:36:17 13° SW visible
25 Jan 9.1 20:42:21 10° SSW 20:45:48 23° S 20:45:48 23° S visible
26 Jan 9.1 19:49:18 10° SSW 19:53:50 20° SSE 19:55:21 18° SE visible
26 Jan 10.1 21:41:37 10° SW 21:42:15 13° SW 21:42:15 13° SW visible
27 Jan 9.5 18:56:31 10° S 18:59:52 14° SSE 19:03:10 10° SE visible
27 Jan 8.8 20:48:05 10° SW 20:51:50 33° SSW 20:51:50 33° SSW visible
